Location: Hermaringen
(48.5952°N, 10.2585°E)
Time: 05:22:30
(UTC+00:00)

COSMOS 2406 - Pass Details

Date: 18 November 2025
Orbit: 845 x 859 km, 71.0° (Epoch: 10 December)

Event Time Altitude Azimuth Distance (km) Brightness Sun altitude
Rises 18:06:59 0° 329° (NNW) 3,417 6.7 -24.7°
Reaches altitude 10° 18:09:27 10° 327° (NNW) 2,479 6.0 -25.1°
Maximum altitude 18:15:03 63° 248° (WSW) 942 3.6 -26.0°
Enters shadow 18:19:02 20° 171° (S) 1,878 4.9 -26.7°
